QPF
0.07 0.03 0.00 0.00 0.00 0.01 0.00 0.01 0.01 0.02 0.01 0.02 0.02 0.02 0.01 0.01 0.01 0.02 0.01 0.01 0.00 0.00 0.00 0.00 0.00 0.03 0.01 0.00 0.00 0.00 0.00 0.01 0.01 0.00 0.01 0.01 0.02 0.01 0.02 0.03 0.03 0.00 0.03
0.01 0.09 0.01 0.00 0.00 0.01 0.00 0.01 0.01 0.02 0.02 0.03 0.02 0.00 0.01 0.02 0.01 0.02 0.00 0.00 0.03 0.00 0.00 0.00 0.00 0.01 0.02 0.00 0.00 0.00 0.01 0.02 0.02 0.00 0.00 0.01 0.01 0.03 0.04 0.11 0.21 0.13 0.12
0.03 0.04 0.06 0.02 0.00 0.00 0.00 0.00 0.01 0.02 0.01 0.00 0.00 0.02 0.01 0.01 0.01 0.01 0.00 0.00 0.01 0.01 0.00 0.00 0.01 0.00 0.00 0.00 0.00 0.00 0.01 0.01 0.00 0.00 0.00 0.01 0.02 0.02 0.14 0.25 0.27 0.16 0.05
0.17 0.28 0.17 0.12 0.08 0.03 0.01 0.00 0.00 0.01 0.01 0.00 0.01 0.01 0.01 0.01 0.00 0.00 0.01 0.01 0.01 0.01 0.01 0.00 0.00 0.00 0.01 0.00 0.00 0.00 0.00 0.03 0.03 0.02 0.00 0.00 0.01 0.02 0.05 0.16 0.14 0.13 0.06
0.25 0.31 0.20 0.23 0.34 0.31 0.22 0.11 0.03 0.02 0.02 0.03 0.01 0.02 0.01 0.00 0.00 0.00 0.00 0.01 0.00 0.00 0.00 0.00 0.00 0.04 0.00 0.01 0.00 0.00 0.00 0.00 0.00 0.00 0.01 0.00 0.01 0.05 0.05 0.02 0.08 0.10 0.09
0.14 0.19 0.21 0.30 0.27 0.19 0.23 0.22 0.19 0.15 0.07 0.03 0.01 0.02 0.02 0.00 0.00 0.01 0.03 0.04 0.04 0.01 0.00 0.00 0.00 0.01 0.00 0.02 0.01 0.00 0.02 0.01 0.00 0.00 0.00 0.00 0.02 0.04 0.01 0.01 0.01 0.00 0.00
0.09 0.11 0.15 0.21 0.17 0.08 0.04 0.09 0.12 0.13 0.10 0.07 0.03 0.03 0.01 0.03 0.05 0.04 0.03 0.03 0.03 0.02 0.01 0.00 0.00 0.00 0.00 0.03 0.01 0.06 0.09 0.13 0.01 0.00 0.00 0.05 0.02 0.03 0.00 0.04 0.06 0.08 0.09
0.18 0.14 0.12 0.10 0.17 0.17 0.12 0.15 0.19 0.24 0.25 0.23 0.08 0.14 0.12 0.13 0.05 0.02 0.04 0.00 0.00 0.02 0.02 0.01 0.01 0.01 0.02 0.01 0.01 0.02 0.03 0.03 0.03 0.01 0.00 0.00 0.00 0.00 0.00 0.00 0.04 0.10 0.11
0.06 0.13 0.16 0.13 0.09 0.09 0.11 0.22 0.31 0.36 0.31 0.26 0.18 0.22 0.31 0.20 0.12 0.12 0.15 0.07 0.03 0.06 0.12 0.10 0.03 0.02 0.04 0.05 0.04 0.07 0.04 0.00 0.00 0.00 0.00 0.00 0.00 0.00 0.01 0.02 0.02 0.05 0.05
0.00 0.00 0.00 0.00 0.00 0.01 0.01 0.05 0.19 0.27 0.19 0.25 0.32 0.28 0.30 0.26 0.29 0.27 0.25 0.18 0.10 0.11 0.11 0.05 0.01 0.04 0.03 0.02 0.02 0.00 0.01 0.01 0.01 0.00 0.00 0.00 0.00 0.00 0.00 0.00 0.00 0.01 0.00
0.01 0.00 0.00 0.00 0.00 0.02 0.03 0.06 0.13 0.10 0.06 0.09 0.12 0.07 0.04 0.04 0.05 0.05 0.08 0.08 0.08 0.12 0.06 0.06 0.05 0.17 0.08 0.02 0.01 0.00 0.01 0.01 0.01 0.01 0.00 0.00 0.00 0.00 0.00 0.00 0.00 0.00 0.00
0.02 0.02 0.02 0.00 0.00 0.01 0.01 0.09 0.15 0.05 0.01 0.02 0.02 0.00 0.00 0.00 0.00 0.00 0.00 0.01 0.01 0.02 0.02 0.05 0.04 0.04 0.04 0.04 0.02 0.03 0.04 0.03 0.01 0.01 0.00 0.00 0.00 0.00 0.00 0.00 0.00 0.00 0.00
0.00 0.00 0.00 0.00 0.00 0.00 0.00 0.00 0.03 0.03 0.00 0.00 0.00 0.00 0.00 0.00 0.00 0.00 0.00 0.00 0.01 0.01 0.01 0.01 0.00 0.00 0.00 0.00 0.00 0.00 0.01 0.01 0.01 0.01 0.00 0.00 0.00 0.00 0.00 0.00 0.00 0.00 0.00
0.00 0.00 0.00 0.00 0.00 0.00 0.00 0.00 0.01 0.00 0.00 0.00 0.01 0.00 0.00 0.00 0.00 0.00 0.00 0.00 0.00 0.00 0.00 0.00 0.00 0.00 0.00 0.00 0.00 0.00 0.00 0.00 0.00 0.00 0.00 0.00 0.00 0.00 0.00 0.00 0.00 0.00 0.00
0.00 0.00 0.00 0.00 0.00 0.00 0.00 0.00 0.00 0.00 0.00 0.00 0.00 0.00 0.00 0.00 0.00 0.00 0.00 0.00 0.00 0.00 0.00 0.00 0.00 0.00 0.00 0.00 0.00 0.00 0.00 0.00 0.00 0.00 0.00 0.00 0.00 0.00 0.00 0.00 0.00 0.00 0.00
0.00 0.01 0.00 0.00 0.00 0.00 0.00 0.00 0.00 0.00 0.00 0.00 0.00 0.00 0.00 0.00 0.00 0.00 0.00 0.00 0.00 0.00 0.00 0.00 0.00 0.00 0.00 0.00 0.00 0.00 0.00 0.00 0.00 0.00 0.00 0.00 0.00 0.00 0.00 0.00 0.00 0.00 0.00
0.00 0.01 0.00 0.00 0.00 0.00 0.00 0.00 0.00 0.00 0.00 0.00 0.00 0.00 0.00 0.00 0.00 0.00 0.00 0.00 0.00 0.00 0.00 0.00 0.00 0.00 0.00 0.00 0.00 0.00 0.00 0.00 0.00 0.00 0.00 0.00 0.00 0.00 0.00 0.00 0.00 0.00 0.00
0.00 0.00 0.00 0.00 0.00 0.00 0.00 0.00 0.00 0.00 0.00 0.00 0.00 0.00 0.00 0.00 0.00 0.00 0.00 0.00 0.00 0.00 0.00 0.00 0.00 0.00 0.00 0.00 0.00 0.00 0.00 0.00 0.00 0.00 0.00 0.00 0.00 0.00 0.00 0.00 0.00 0.00 0.00
0.00 0.00 0.00 0.00 0.00 0.00 0.00 0.00 0.00 0.00 0.00 0.00 0.00 0.00 0.00 0.00 0.00 0.00 0.00 0.00 0.00 0.00 0.00 0.00 0.00 0.00 0.00 0.00 0.00 0.00 0.00 0.00 0.00 0.00 0.00 0.00 0.00 0.00 0.00 0.00 0.00 0.00 0.00
0.00 0.00 0.00 0.00 0.00 0.00 0.00 0.00 0.00 0.00 0.00 0.00 0.00 0.00 0.00 0.00 0.00 0.00 0.00 0.00 0.00 0.00 0.00 0.00 0.00 0.00 0.00 0.00 0.00 0.00 0.00 0.00 0.00 0.00 0.00 0.00 0.00 0.00 0.00 0.00 0.00 0.00 0.00
0.00 0.00 0.00 0.00 0.00 0.00 0.00 0.00 0.00 0.00 0.00 0.00 0.00 0.00 0.00 0.00 0.00 0.00 0.00 0.00 0.00 0.00 0.00 0.00 0.00 0.00 0.00 0.00 0.00 0.00 0.00 0.00 0.00 0.00 0.00 0.00 0.00 0.00 0.00 0.00 0.00 0.00 0.00
0.00 0.00 0.00 0.00 0.00 0.00 0.00 0.00 0.00 0.00 0.00 0.00 0.00 0.00 0.00 0.00 0.00 0.00 0.00 0.00 0.00 0.00 0.00 0.00 0.00 0.00 0.00 0.00 0.00 0.00 0.00 0.00 0.00 0.00 0.00 0.00 0.00 0.00 0.00 0.00 0.00 0.00 0.00
0.00 0.00 0.00 0.00 0.00 0.00 0.00 0.00 0.00 0.00 0.00 0.00 0.00 0.00 0.00 0.00 0.00 0.00 0.00 0.00 0.00 0.00 0.00 0.00 0.00 0.00 0.00 0.00 0.00 0.00 0.00 0.00 0.00 0.00 0.00 0.00 0.00 0.00 0.00 0.00 0.00 0.00 0.00
0.00 0.00 0.00 0.00 0.00 0.00 0.00 0.00 0.00 0.00 0.00 0.00 0.00 0.00 0.00 0.00 0.00 0.00 0.00 0.00 0.00 0.00 0.00 0.00 0.00 0.00 0.00 0.00 0.00 0.00 0.00 0.00 0.00 0.00 0.00 0.00 0.00 0.00 0.00 0.00 0.00 0.00 0.00
0.00 0.00 0.00 0.00 0.00 0.00 0.00 0.00 0.00 0.00 0.00 0.00 0.00 0.00 0.00 0.00 0.00 0.00 0.00 0.00 0.00 0.00 0.00 0.00 0.00 0.00 0.00 0.00 0.00 0.00 0.00 0.00 0.00 0.00 0.00 0.00 0.00 0.00 0.00 0.00 0.00 0.00 0.00
0.00 0.00 0.00 0.00 0.00 0.00 0.00 0.00 0.00 0.00 0.00 0.00 0.00 0.00 0.00 0.00 0.00 0.00 0.00 0.00 0.00 0.00 0.00 0.00 0.00 0.00 0.00 0.00 0.00 0.00 0.00 0.00 0.00 0.00 0.00 0.00 0.00 0.00 0.00 0.00 0.00 0.00 0.00
MSLP
1012.17 1012.88 1013.08 1013.48 1013.95 1014.16 1014.12 1014.35 1014.37 1014.80 1014.95 1015.21 1015.49 1016.00 1016.21 1016.45 1016.69 1016.83 1016.89 1017.23 1017.78 1017.90 1017.89 1017.96 1018.07 1017.94 1017.92 1017.85 1017.73 1017.66 1017.93 1018.23 1018.69 1018.06 1017.54 1017.54 1018.01 1017.79 1017.73 1017.80 1018.08 1018.66 1018.89
1011.18 1012.23 1012.39 1012.66 1012.97 1013.42 1013.65 1013.92 1014.24 1014.54 1014.53 1014.86 1015.38 1015.78 1015.80 1016.19 1016.31 1016.67 1016.85 1016.91 1017.17 1017.49 1017.67 1017.66 1017.72 1017.59 1017.59 1017.51 1017.67 1017.89 1017.93 1018.10 1018.06 1018.15 1017.86 1017.76 1017.57 1017.47 1017.36 1018.08 1018.41 1018.62 1019.02
1010.66 1011.13 1011.52 1011.74 1012.18 1012.51 1013.12 1013.57 1013.84 1014.35 1014.47 1014.44 1014.89 1015.39 1015.54 1015.93 1016.27 1016.41 1016.49 1016.66 1016.66 1016.93 1017.14 1017.16 1017.01 1017.20 1017.59 1017.57 1017.46 1017.61 1017.79 1017.85 1017.86 1017.90 1017.80 1017.33 1017.41 1017.25 1017.59 1017.88 1018.02 1018.74 1019.07
1009.73 1010.23 1010.69 1010.98 1011.61 1012.12 1012.49 1013.18 1013.47 1013.66 1013.84 1013.95 1014.40 1014.77 1015.03 1015.26 1015.57 1016.01 1016.06 1016.11 1016.19 1016.42 1016.63 1016.75 1016.67 1016.78 1017.09 1017.15 1017.26 1017.23 1017.30 1017.64 1017.76 1017.78 1017.64 1017.52 1017.46 1017.21 1017.26 1017.50 1017.96 1018.60 1019.15
1009.63 1009.98 1010.43 1011.00 1011.77 1011.93 1012.30 1012.64 1012.96 1013.12 1013.23 1013.28 1013.66 1014.09 1014.33 1014.62 1014.94 1015.32 1015.49 1015.63 1015.74 1016.01 1016.06 1016.14 1016.11 1016.19 1016.24 1016.41 1016.69 1016.78 1016.88 1017.18 1017.46 1017.60 1017.69 1017.58 1017.36 1017.28 1017.38 1017.22 1017.36 1017.59 1018.49
1009.78 1010.35 1010.55 1010.89 1011.72 1011.70 1012.75 1013.27 1013.44 1013.29 1013.01 1012.94 1013.19 1013.67 1013.99 1014.16 1014.42 1014.69 1014.91 1015.19 1015.36 1015.53 1015.76 1015.61 1015.58 1015.78 1015.93 1016.11 1016.18 1016.20 1016.36 1016.83 1017.14 1017.30 1017.37 1017.40 1017.15 1017.05 1017.02 1017.03 1017.07 1017.47 1018.08
1009.76 1010.49 1010.61 1010.78 1010.43 1011.71 1012.44 1013.39 1013.50 1013.77 1013.17 1012.79 1013.01 1013.37 1013.72 1013.88 1014.13 1014.39 1014.74 1014.90 1014.77 1014.97 1015.37 1015.34 1015.46 1015.48 1015.58 1015.72 1015.69 1015.66 1015.97 1016.23 1016.38 1016.61 1016.83 1016.87 1017.01 1017.00 1016.77 1016.76 1016.87 1017.10 1017.25
1010.48 1010.76 1010.78 1010.88 1011.32 1011.93 1013.42 1013.93 1014.01 1014.21 1013.30 1012.54 1012.69 1013.01 1013.20 1013.74 1014.04 1014.14 1014.42 1014.45 1014.56 1014.51 1014.53 1014.70 1015.06 1015.23 1015.32 1015.42 1015.49 1015.57 1015.77 1016.19 1016.54 1016.51 1016.68 1017.06 1017.24 1017.26 1017.07 1016.82 1016.85 1016.97 1017.59
1011.39 1011.77 1011.74 1011.77 1012.15 1012.55 1012.62 1013.00 1013.88 1014.21 1012.28 1012.08 1012.35 1012.59 1013.00 1014.08 1014.31 1014.42 1014.35 1014.39 1014.30 1014.12 1014.20 1014.54 1014.85 1015.02 1015.22 1015.16 1015.31 1015.57 1015.74 1016.61 1016.87 1016.63 1016.93 1017.28 1017.41 1017.33 1017.16 1016.97 1016.98 1017.14 1017.48
1011.52 1011.77 1011.99 1012.32 1012.54 1012.73 1012.78 1012.72 1013.28 1011.11 1011.79 1010.96 1012.45 1013.11 1013.69 1014.38 1014.31 1014.58 1014.57 1014.41 1014.36 1014.10 1014.23 1014.68 1014.90 1015.04 1015.30 1015.15 1015.32 1015.48 1015.73 1016.29 1016.98 1017.32 1017.37 1017.39 1017.43 1017.40 1017.20 1017.22 1017.42 1017.45 1017.61
1011.25 1011.47 1011.61 1011.87 1012.09 1012.29 1012.49 1012.52 1012.02 1011.77 1011.77 1012.06 1013.19 1013.91 1014.37 1014.72 1015.27 1015.06 1014.80 1014.57 1014.54 1014.48 1014.35 1014.99 1015.50 1015.62 1015.67 1015.55 1015.49 1015.70 1015.85 1016.05 1016.55 1016.90 1017.35 1017.66 1017.71 1017.85 1017.83 1017.80 1017.66 1017.69 1017.93
1011.21 1011.70 1011.94 1011.94 1012.06 1012.22 1012.39 1012.36 1012.15 1011.89 1012.50 1013.04 1013.47 1014.14 1014.65 1015.17 1015.30 1015.17 1015.11 1014.85 1014.84 1014.77 1015.03 1015.48 1015.64 1015.63 1015.65 1015.85 1015.88 1015.83 1016.03 1016.18 1016.68 1017.25 1017.67 1018.08 1018.29 1018.44 1018.37 1018.21 1018.26 1018.22 1018.16
1011.46 1011.89 1012.09 1012.09 1012.19 1012.23 1012.32 1012.74 1013.04 1013.44 1013.33 1013.59 1013.88 1014.28 1014.86 1015.41 1015.64 1015.34 1015.19 1014.98 1014.82 1015.00 1015.30 1015.56 1015.75 1016.08 1016.17 1016.47 1016.45 1016.48 1016.39 1016.62 1017.03 1017.53 1017.96 1018.47 1018.72 1018.90 1018.69 1018.45 1018.49 1018.71 1018.73
1011.90 1012.39 1012.52 1012.53 1012.64 1012.74 1013.04 1013.20 1013.49 1013.72 1014.09 1014.34 1014.54 1014.65 1015.31 1015.85 1015.68 1015.39 1015.57 1015.45 1015.43 1015.64 1015.93 1016.04 1016.37 1016.36 1016.60 1016.82 1016.77 1017.01 1017.25 1017.26 1017.42 1017.94 1018.47 1018.98 1019.09 1019.29 1019.33 1019.03 1019.00 1019.17 1019.04
1011.97 1012.43 1012.74 1013.01 1013.36 1013.76 1014.22 1014.50 1014.56 1015.02 1015.06 1014.84 1014.89 1015.08 1015.62 1015.75 1015.99 1015.87 1015.76 1015.80 1015.91 1016.12 1016.36 1016.61 1016.60 1016.80 1017.20 1017.28 1017.47 1017.37 1017.50 1017.91 1018.22 1018.33 1018.89 1019.32 1019.49 1019.39 1019.44 1019.19 1019.07 1019.07 1019.09
1011.99 1012.27 1012.70 1012.97 1013.35 1013.95 1014.58 1015.03 1015.19 1015.27 1015.17 1015.00 1014.97 1015.21 1015.97 1015.95 1016.11 1016.18 1016.17 1016.27 1016.44 1016.40 1016.56 1016.72 1016.99 1017.17 1017.28 1017.45 1017.81 1018.00 1018.00 1018.21 1018.42 1018.81 1019.16 1019.35 1019.46 1019.35 1019.33 1019.21 1019.11 1019.34 1019.49
1012.14 1012.29 1012.42 1012.80 1013.34 1013.79 1014.26 1014.60 1015.21 1015.70 1015.64 1015.64 1015.67 1015.78 1016.07 1016.15 1016.20 1016.34 1016.57 1016.65 1016.59 1016.40 1016.38 1016.56 1016.85 1016.82 1017.14 1017.35 1017.64 1017.98 1018.26 1018.48 1018.73 1018.82 1018.93 1019.08 1019.16 1019.10 1019.02 1019.07 1019.09 1019.19 1019.22
1012.24 1012.35 1012.48 1012.66 1012.98 1013.22 1013.60 1014.04 1014.54 1015.08 1015.57 1015.97 1016.03 1016.13 1016.24 1016.27 1016.36 1016.51 1016.65 1016.67 1016.41 1016.20 1016.26 1016.38 1016.55 1016.75 1016.94 1017.19 1017.51 1017.87 1018.14 1018.32 1018.50 1018.58 1018.78 1018.91 1018.89 1018.98 1019.04 1019.06 1019.04 1019.13 1019.01
1012.22 1012.44 1012.57 1012.73 1012.89 1013.05 1013.31 1013.55 1013.87 1014.28 1014.82 1015.42 1015.99 1016.24 1016.33 1016.48 1016.48 1016.45 1016.35 1016.39 1016.20 1016.06 1016.04 1016.15 1016.23 1016.44 1016.71 1016.94 1017.38 1017.65 1017.84 1018.17 1018.37 1018.58 1018.69 1018.68 1018.77 1018.88 1018.82 1018.77 1018.73 1018.69 1018.66
1012.03 1012.21 1012.47 1012.63 1012.76 1012.83 1012.97 1013.19 1013.45 1013.75 1014.29 1014.84 1015.25 1015.54 1015.92 1016.22 1016.26 1016.08 1015.99 1015.92 1015.72 1015.69 1015.55 1015.81 1015.95 1016.11 1016.50 1016.86 1017.15 1017.40 1017.75 1018.01 1018.18 1018.23 1018.22 1018.34 1018.30 1018.33 1018.43 1018.33 1018.43 1018.39 1018.50
1011.65 1011.91 1012.14 1012.32 1012.48 1012.63 1012.77 1012.97 1013.13 1013.36 1013.71 1014.13 1014.37 1014.48 1014.77 1015.29 1015.48 1015.46 1015.38 1015.21 1015.17 1015.08 1014.97 1015.22 1015.64 1015.93 1016.08 1016.42 1016.88 1017.15 1017.34 1017.49 1017.55 1017.67 1017.87 1017.80 1017.76 1017.99 1017.93 1017.95 1017.97 1018.14 1018.34
1011.12 1011.46 1011.73 1011.97 1012.03 1012.24 1012.38 1012.56 1012.76 1012.86 1013.27 1013.66 1013.91 1014.22 1014.35 1014.75 1014.94 1014.88 1014.53 1014.40 1014.33 1014.55 1014.61 1014.90 1015.36 1015.55 1015.63 1015.90 1016.28 1016.50 1016.76 1017.05 1017.11 1017.33 1017.41 1017.40 1017.50 1017.50 1017.61 1017.78 1017.87 1018.03 1018.18
1010.78 1010.87 1011.06 1011.24 1011.52 1011.74 1011.82 1011.82 1012.04 1012.18 1012.60 1013.00 1013.38 1013.89 1014.24 1014.28 1014.21 1014.06 1013.87 1013.92 1014.09 1014.21 1014.25 1014.47 1014.90 1015.06 1015.10 1015.40 1015.47 1015.67 1016.02 1016.26 1016.34 1016.54 1016.87 1017.02 1017.26 1017.47 1017.48 1017.68 1017.78 1017.93 1018.01
1010.36 1010.54 1010.35 1010.66 1010.99 1011.19 1011.22 1011.34 1011.56 1011.61 1011.88 1012.53 1012.83 1013.04 1013.24 1013.21 1013.33 1013.38 1013.23 1013.39 1013.58 1013.74 1013.77 1013.95 1014.16 1014.56 1014.83 1015.02 1015.16 1015.24 1015.46 1015.52 1015.81 1016.12 1016.38 1016.72 1016.93 1017.04 1017.25 1017.46 1017.50 1017.49 1017.64
1010.07 1010.10 1009.98 1010.24 1010.46 1010.70 1010.98 1011.15 1011.18 1011.23 1011.35 1011.62 1012.18 1012.43 1012.52 1012.48 1012.54 1012.56 1012.62 1012.89 1013.08 1013.26 1013.50 1013.46 1013.62 1013.80 1014.11 1014.35 1014.68 1014.82 1015.19 1015.38 1015.53 1015.75 1016.10 1016.43 1016.80 1017.06 1017.15 1017.34 1017.48 1017.50 1017.42
1009.83 1009.93 1009.90 1009.85 1010.04 1010.29 1010.54 1010.72 1010.81 1010.90 1011.13 1011.22 1011.38 1011.44 1011.61 1011.82 1011.88 1012.01 1012.15 1012.37 1012.64 1012.86 1013.07 1013.10 1013.15 1013.25 1013.49 1013.81 1014.05 1014.42 1014.95 1015.06 1015.37 1015.53 1015.83 1016.25 1016.67 1016.98 1017.13 1017.32 1017.50 1017.82 1017.95
Thickness
5772 5769 5769 5771 5771 5772 5775 5776 5778 5778 5780 5779 5779 5777 5777 5777 5779 5779 5780 5779 5774 5772 5774 5775 5774 5777 5777 5779 5782 5781 5778 5775 5763 5770 5779 5780 5775 5775 5776 5775 5772 5768 5765
5776 5769 5773 5774 5775 5772 5773 5774 5774 5774 5779 5779 5775 5774 5776 5774 5776 5775 5775 5777 5775 5770 5769 5773 5772 5777 5776 5777 5775 5773 5774 5772 5770 5764 5771 5774 5776 5776 5776 5770 5767 5761 5759
5776 5778 5775 5776 5775 5775 5770 5769 5770 5768 5772 5776 5774 5771 5771 5769 5768 5770 5773 5774 5776 5773 5770 5771 5775 5774 5770 5771 5773 5771 5770 5770 5770 5766 5764 5772 5772 5775 5769 5768 5766 5757 5755
5784 5782 5779 5775 5771 5769 5770 5765 5766 5768 5770 5772 5770 5771 5771 5769 5767 5767 5770 5772 5774 5773 5770 5770 5772 5772 5770 5770 5770 5769 5769 5766 5765 5763 5763 5764 5765 5769 5769 5764 5760 5757 5750
5780 5775 5771 5771 5766 5766 5766 5767 5768 5767 5768 5771 5768 5768 5770 5771 5770 5766 5767 5768 5768 5767 5769 5770 5773 5774 5774 5772 5769 5768 5767 5764 5762 5761 5760 5760 5760 5761 5760 5763 5759 5758 5749
5767 5760 5763 5765 5760 5748 5751 5752 5754 5758 5762 5766 5767 5763 5763 5766 5767 5766 5765 5765 5765 5765 5763 5767 5770 5770 5770 5769 5768 5768 5768 5762 5758 5757 5756 5754 5756 5758 5758 5757 5754 5748 5743
5762 5751 5755 5742 5749 5752 5744 5735 5741 5742 5750 5757 5759 5759 5759 5761 5761 5760 5760 5761 5764 5764 5761 5763 5764 5767 5768 5767 5767 5766 5764 5763 5763 5760 5755 5755 5754 5754 5752 5750 5749 5744 5742
5747 5745 5747 5746 5745 5740 5725 5721 5722 5723 5738 5751 5753 5752 5755 5755 5754 5754 5754 5757 5759 5761 5763 5764 5762 5762 5763 5763 5763 5761 5759 5757 5754 5754 5753 5749 5745 5742 5742 5742 5739 5735 5729
5733 5729 5731 5733 5729 5725 5722 5715 5712 5714 5738 5745 5749 5750 5749 5745 5744 5745 5748 5750 5753 5758 5759 5758 5758 5758 5754 5754 5756 5754 5752 5745 5742 5742 5741 5738 5734 5733 5732 5733 5728 5725 5720
5729 5725 5722 5720 5717 5713 5713 5715 5712 5733 5733 5726 5737 5737 5735 5734 5735 5735 5738 5743 5746 5750 5751 5750 5749 5748 5745 5746 5745 5745 5742 5739 5731 5727 5726 5724 5723 5722 5722 5720 5716 5713 5710
5730 5727 5724 5721 5718 5716 5713 5711 5713 5714 5726 5723 5721 5721 5721 5723 5719 5723 5728 5732 5735 5738 5742 5737 5735 5733 5732 5733 5733 5732 5731 5729 5723 5720 5714 5711 5710 5707 5704 5702 5701 5699 5696
5725 5722 5719 5718 5715 5711 5709 5710 5711 5717 5715 5714 5714 5714 5715 5713 5713 5716 5719 5722 5723 5726 5726 5722 5721 5722 5722 5721 5720 5719 5717 5716 5710 5705 5699 5694 5692 5690 5688 5687 5683 5681 5679
5715 5711 5712 5711 5709 5708 5707 5703 5700 5701 5702 5702 5705 5705 5705 5703 5702 5706 5709 5713 5715 5714 5712 5710 5709 5707 5706 5704 5704 5702 5700 5698 5693 5689 5684 5679 5674 5671 5672 5671 5670 5664 5663
5706 5701 5700 5702 5701 5699 5695 5694 5695 5693 5691 5691 5691 5695 5692 5690 5693 5697 5697 5700 5700 5698 5696 5696 5694 5694 5691 5690 5690 5685 5681 5680 5679 5673 5668 5659 5658 5656 5653 5656 5654 5650 5649
5699 5696 5691 5690 5688 5684 5680 5680 5683 5677 5679 5687 5686 5687 5684 5684 5682 5682 5685 5687 5687 5685 5684 5681 5682 5681 5676 5676 5674 5673 5672 5665 5661 5661 5654 5648 5645 5645 5642 5643 5643 5640 5638
5691 5689 5685 5685 5682 5677 5674 5671 5668 5669 5671 5673 5676 5680 5674 5675 5676 5675 5676 5675 5674 5673 5674 5674 5672 5670 5669 5667 5663 5661 5659 5656 5654 5648 5643 5640 5638 5637 5635 5634 5633 5628 5623
5682 5681 5680 5676 5673 5672 5670 5669 5666 5662 5661 5662 5664 5666 5667 5669 5669 5669 5667 5666 5666 5668 5670 5667 5664 5665 5662 5659 5655 5650 5648 5645 5642 5640 5637 5634 5631 5630 5629 5627 5625 5622 5619
5672 5672 5671 5670 5668 5668 5668 5666 5663 5661 5659 5658 5657 5659 5659 5660 5659 5659 5657 5657 5661 5661 5662 5660 5657 5656 5653 5651 5647 5643 5640 5638 5635 5633 5629 5627 5626 5624 5621 5619 5618 5615 5613
5666 5662 5662 5662 5662 5662 5662 5662 5661 5660 5657 5654 5650 5649 5649 5649 5649 5649 5650 5653 5655 5655 5655 5653 5652 5650 5647 5645 5640 5637 5636 5632 5629 5626 5624 5623 5619 5617 5616 5615 5613 5611 5609
5666 5663 5660 5657 5655 5656 5656 5656 5656 5656 5653 5650 5649 5649 5646 5645 5646 5649 5648 5649 5650 5652 5653 5650 5649 5647 5642 5638 5635 5633 5629 5626 5624 5623 5622 5618 5617 5615 5613 5611 5607 5605 5600
5667 5664 5661 5659 5655 5653 5653 5652 5652 5652 5651 5649 5651 5650 5649 5646 5646 5647 5648 5649 5649 5650 5651 5649 5643 5641 5640 5637 5632 5629 5627 5625 5623 5620 5617 5615 5615 5611 5608 5606 5603 5597 5592
5670 5666 5662 5659 5658 5655 5653 5652 5651 5651 5650 5648 5648 5647 5645 5644 5644 5645 5648 5650 5651 5649 5649 5646 5640 5639 5639 5635 5631 5628 5625 5621 5619 5616 5613 5612 5609 5607 5602 5598 5593 5588 5582
5673 5671 5668 5666 5663 5660 5657 5657 5655 5654 5651 5649 5647 5644 5643 5644 5645 5647 5649 5649 5648 5646 5645 5643 5640 5638 5636 5631 5630 5628 5623 5619 5618 5615 5610 5606 5601 5596 5592 5587 5582 5576 5570
5676 5674 5674 5670 5667 5664 5663 5661 5659 5659 5658 5651 5649 5649 5648 5649 5648 5648 5649 5649 5647 5646 5644 5641 5639 5635 5630 5628 5624 5622 5620 5618 5613 5608 5604 5599 5592 5588 5582 5576 5572 5568 5563
5678 5676 5676 5672 5669 5666 5663 5662 5661 5662 5661 5659 5656 5653 5651 5651 5651 5650 5649 5646 5643 5641 5639 5637 5635 5631 5627 5625 5620 5617 5612 5607 5604 5600 5595 5589 5583 5577 5572 5567 5561 5558 5555
5678 5676 5675 5674 5671 5668 5665 5663 5662 5661 5659 5659 5657 5655 5653 5651 5650 5648 5645 5643 5639 5636 5633 5631 5630 5627 5623 5619 5617 5612 5606 5602 5597 5592 5586 5579 5573 5567 5561 5556 5550 5543 5540